| time (UTC) | temp F | wind direction | speed MPH | gust MPH | rain 1hr in | rain 24hr in | rain mn in | humidity % | barometer mb |
| 20260905230858 | 63 | 0.0 | 0.0 | 0.00 | 0.17 | 0.00 | 78 | 1029.8 | |
| 20260905225908 | 63 | 315 | 0.0 | 2.0 | 0.00 | 0.17 | 0.00 | 78 | 1029.7 |
| 20260905224922 | 63 | 0.0 | 0.0 | 0.00 | 0.17 | 0.00 | 78 | 1029.7 | |
| 20260905223857 | 63 | 0.0 | 0.0 | 0.00 | 0.17 | 0.00 | 77 | 1029.5 | |
| 20260905222906 | 63 | 0.0 | 0.0 | 0.00 | 0.17 | 0.00 | 77 | 1029.3 | |
| 20260905221902 | 63 | 0.0 | 0.0 | 0.00 | 0.17 | 0.00 | 76 | 1029.3 | |
| 20260905220910 | 63 | 0.0 | 0.0 | 0.00 | 0.17 | 0.00 | 73 | 1029.2 | |
| 20260905215904 | 64 | 0.0 | 0.0 | 0.00 | 0.17 | 0.00 | 71 | 1029.1 | |
| 20260905214859 | 64 | 0.0 | 0.0 | 0.00 | 0.17 | 0.17 | 71 | 1029.0 | |
| 20260905213908 | 64 | 0.0 | 0.0 | 0.00 | 0.17 | 0.17 | 70 | 1029.0 | |
| 20260905212902 | 65 | 0.0 | 0.0 | 0.00 | 0.17 | 0.17 | 70 | 1028.9 | |
| 20260905211910 | 65 | 315 | 0.0 | 1.0 | 0.00 | 0.17 | 0.17 | 69 | 1028.9 |
| 20260905210925 | 65 | 0.0 | 1.0 | 0.00 | 0.17 | 0.17 | 69 | 1028.8 | |
| 20260905205859 | 65 | 96 | 0.0 | 2.0 | 0.00 | 0.17 | 0.17 | 69 | 1028.7 |
| 20260905204928 | 65 | 0.0 | 1.0 | 0.00 | 0.17 | 0.17 | 68 | 1028.7 | |
| 20260905203903 | 65 | 327 | 0.0 | 2.0 | 0.00 | 0.17 | 0.17 | 67 | 1028.7 |
| 20260905202857 | 65 | 0.0 | 0.0 | 0.00 | 0.17 | 0.17 | 66 | 1028.8 | |
| 20260905201907 | 66 | 320 | 0.0 | 2.0 | 0.00 | 0.17 | 0.17 | 66 | 1028.7 |
| 20260905200921 | 66 | 72 | 0.0 | 3.0 | 0.00 | 0.17 | 0.17 | 66 | 1028.7 |
| 20260905195855 | 65 | 0.0 | 0.0 | 0.00 | 0.17 | 0.17 | 66 | 1028.7 | |
| 20260905194905 | 65 | 180 | 0.0 | 2.0 | 0.00 | 0.17 | 0.17 | 65 | 1028.5 |
| 20260905193900 | 66 | 67 | 0.0 | 2.0 | 0.00 | 0.17 | 0.17 | 64 | 1028.5 |
| 20260905192910 | 66 | 324 | 1.0 | 2.0 | 0.00 | 0.17 | 0.17 | 63 | 1028.4 |
| 20260905191903 | 66 | 315 | 0.0 | 2.0 | 0.00 | 0.17 | 0.17 | 63 | 1028.4 |
| 20260905190918 | 67 | 0.0 | 2.0 | 0.00 | 0.17 | 0.17 | 62 | 1028.4 | |
| 20260905185907 | 67 | 315 | 1.0 | 2.0 | 0.00 | 0.17 | 0.17 | 62 | 1028.4 |
| 20260905184922 | 67 | 270 | 0.0 | 2.0 | 0.00 | 0.17 | 0.17 | 62 | 1028.1 |
| 20260905183931 | 68 | 0 | 0.0 | 1.0 | 0.00 | 0.17 | 0.17 | 62 | 1028.0 |
| 20260905182902 | 68 | 352 | 0.0 | 3.0 | 0.00 | 0.17 | 0.17 | 62 | 1027.9 |
| 20260905181911 | 69 | 260 | 0.0 | 3.0 | 0.00 | 0.17 | 0.17 | 61 | 1027.8 |
| 20260905180905 | 69 | 300 | 1.0 | 3.0 | 0.00 | 0.17 | 0.17 | 61 | 1027.8 |
| 20260905175859 | 70 | 306 | 1.0 | 3.0 | 0.00 | 0.17 | 0.17 | 60 | 1027.6 |
| 20260905174908 | 70 | 142 | 2.0 | 4.0 | 0.00 | 0.17 | 0.17 | 60 | 1027.4 |
| 20260905173902 | 71 | 348 | 1.0 | 5.0 | 0.00 | 0.17 | 0.17 | 60 | 1027.4 |
| 20260905172857 | 71 | 76 | 2.0 | 4.0 | 0.00 | 0.17 | 0.17 | 59 | 1027.3 |
| 20260905171906 | 72 | 184 | 1.0 | 5.0 | 0.00 | 0.17 | 0.17 | 58 | 1027.3 |
| 20260905170921 | 72 | 292 | 2.0 | 4.0 | 0.00 | 0.17 | 0.17 | 57 | 1027.3 |
| 20260905165910 | 73 | 341 | 1.0 | 4.0 | 0.00 | 0.17 | 0.17 | 55 | 1027.2 |
| 20260905164905 | 73 | 227 | 2.0 | 4.0 | 0.00 | 0.17 | 0.17 | 55 | 1027.2 |
| 20260905163859 | 73 | 274 | 2.0 | 5.0 | 0.00 | 0.17 | 0.17 | 54 | 1027.2 |
| 20260905162906 | 73 | 50 | 1.0 | 4.0 | 0.00 | 0.17 | 0.17 | 53 | 1027.1 |
| 20260905161900 | 73 | 325 | 2.0 | 4.0 | 0.00 | 0.17 | 0.17 | 53 | 1027.0 |
| 20260905160910 | 73 | 360 | 3.0 | 6.0 | 0.00 | 0.17 | 0.17 | 52 | 1027.1 |
| 20260905155904 | 73 | 304 | 2.0 | 5.0 | 0.00 | 0.17 | 0.17 | 53 | 1026.9 |
| 20260905154859 | 74 | 337 | 3.0 | 6.0 | 0.00 | 0.17 | 0.17 | 52 | 1027.0 |
| 20260905153908 | 76 | 331 | 4.0 | 12.0 | 0.00 | 0.17 | 0.17 | 50 | 1026.9 |
| 20260905152902 | 79 | 267 | 3.0 | 10.0 | 0.00 | 0.17 | 0.17 | 48 | 1026.9 |
| 20260905151911 | 79 | 20 | 3.0 | 8.0 | 0.00 | 0.17 | 0.17 | 47 | 1026.9 |
| 20260905150905 | 79 | 333 | 4.0 | 7.0 | 0.00 | 0.17 | 0.17 | 47 | 1026.8 |
| 20260905145859 | 79 | 328 | 4.0 | 7.0 | 0.00 | 0.17 | 0.17 | 47 | 1026.8 |
| 20260905145009 | 78 | 269 | 4.0 | 7.0 | 0.00 | 0.17 | 0.17 | 49 | 1026.8 |
| 20260905143902 | 78 | 317 | 5.0 | 8.0 | 0.00 | 0.17 | 0.17 | 49 | 1026.9 |
| 20260905142917 | 77 | 325 | 5.0 | 12.0 | 0.00 | 0.17 | 0.17 | 50 | 1026.9 |
| 20260905141928 | 77 | 342 | 4.0 | 9.0 | 0.00 | 0.17 | 0.17 | 49 | 1026.8 |
| 20260905140900 | 78 | 302 | 4.0 | 11.0 | 0.00 | 0.17 | 0.17 | 48 | 1026.8 |
| 20260905135910 | 79 | 266 | 4.0 | 7.0 | 0.00 | 0.17 | 0.17 | 48 | 1026.8 |
| 20260905134904 | 78 | 341 | 4.0 | 7.0 | 0.00 | 0.17 | 0.17 | 49 | 1026.8 |
| 20260905133859 | 78 | 4 | 3.0 | 7.0 | 0.00 | 0.17 | 0.17 | 50 | 1026.9 |
| 20260905132909 | 77 | 343 | 3.0 | 8.0 | 0.00 | 0.17 | 0.17 | 50 | 1027.2 |
| 20260905131903 | 78 | 20 | 4.0 | 7.0 | 0.00 | 0.17 | 0.17 | 50 | 1027.2 |
| 20260905130857 | 77 | 305 | 5.0 | 13.0 | 0.00 | 0.17 | 0.17 | 50 | 1027.3 |
| 20260905125906 | 78 | 85 | 3.0 | 5.0 | 0.00 | 0.17 | 0.17 | 51 | 1027.4 |
| 20260905124900 | 76 | 346 | 4.0 | 9.0 | 0.00 | 0.17 | 0.17 | 51 | 1027.5 |
| 20260905123909 | 76 | 353 | 5.0 | 9.0 | 0.00 | 0.17 | 0.17 | 51 | 1027.5 |
| 20260905122924 | 77 | 319 | 5.0 | 10.0 | 0.00 | 0.17 | 0.17 | 51 | 1027.5 |
| 20260905121918 | 77 | 63 | 4.0 | 9.0 | 0.00 | 0.17 | 0.17 | 51 | 1027.4 |
| 20260905120906 | 77 | 343 | 3.0 | 6.0 | 0.00 | 0.17 | 0.17 | 52 | 1027.4 |
| 20260905115859 | 76 | 313 | 3.0 | 5.0 | 0.00 | 0.17 | 0.17 | 54 | 1027.4 |
| 20260905114909 | 75 | 42 | 3.0 | 7.0 | 0.00 | 0.17 | 0.17 | 56 | 1027.4 |
| 20260905113903 | 74 | 287 | 4.0 | 7.0 | 0.00 | 0.17 | 0.17 | 57 | 1027.3 |
| 20260905112858 | 74 | 14 | 3.0 | 5.0 | 0.00 | 0.17 | 0.17 | 58 | 1027.4 |
| 20260905111907 | 74 | 356 | 2.0 | 10.0 | 0.00 | 0.17 | 0.17 | 60 | 1027.5 |
| 20260905110922 | 73 | 348 | 4.0 | 11.0 | 0.00 | 0.17 | 0.17 | 61 | 1027.6 |
| 20260905105911 | 74 | 347 | 4.0 | 8.0 | 0.00 | 0.17 | 0.17 | 59 | 1027.5 |
| 20260905104906 | 73 | 329 | 4.0 | 7.0 | 0.00 | 0.17 | 0.17 | 62 | 1027.4 |
| 20260905103859 | 72 | 144 | 3.0 | 7.0 | 0.00 | 0.17 | 0.17 | 69 | 1027.5 |
| 20260905102908 | 73 | 302 | 3.0 | 6.0 | 0.00 | 0.17 | 0.17 | 65 | 1027.6 |
| 20260905101903 | 72 | 161 | 3.0 | 5.0 | 0.00 | 0.17 | 0.17 | 72 | 1027.5 |
| 20260905100912 | 70 | 222 | 3.0 | 7.0 | 0.00 | 0.17 | 0.17 | 81 | 1027.5 |
| 20260905095905 | 68 | 286 | 2.0 | 6.0 | 0.00 | 0.17 | 0.17 | 87 | 1027.2 |
| 20260905094859 | 65 | 241 | 1.0 | 4.0 | 0.00 | 0.17 | 0.17 | 88 | 1027.4 |
| 20260905093907 | 64 | 307 | 1.0 | 4.0 | 0.00 | 0.17 | 0.17 | 89 | 1027.6 |
| 20260905092859 | 64 | 312 | 1.0 | 3.0 | 0.01 | 0.17 | 0.17 | 88 | 1027.8 |
| 20260905091905 | 63 | 259 | 0.0 | 2.0 | 0.02 | 0.17 | 0.17 | 91 | 1027.6 |
| 20260905090858 | 63 | 300 | 1.0 | 2.0 | 0.02 | 0.17 | 0.17 | 90 | 1027.5 |
| 20260905085928 | 63 | 355 | 0.0 | 2.0 | 0.04 | 0.17 | 0.17 | 90 | 1027.7 |
| 20260905084902 | 63 | 0.0 | 0.0 | 0.04 | 0.17 | 0.17 | 89 | 1027.6 | |
| 20260905083856 | 63 | 335 | 0.0 | 2.0 | 0.05 | 0.17 | 0.17 | 89 | 1027.7 |
| 20260905082925 | 63 | 304 | 1.0 | 3.0 | 0.05 | 0.15 | 0.15 | 89 | 1027.5 |
| 20260905081900 | 63 | 87 | 1.0 | 2.0 | 0.06 | 0.14 | 0.14 | 89 | 1027.3 |
| 20260905080909 | 62 | 131 | 0.0 | 2.0 | 0.08 | 0.14 | 0.14 | 89 | 1027.3 |
| 20260905075903 | 62 | 318 | 1.0 | 3.0 | 0.07 | 0.13 | 0.13 | 88 | 1027.4 |
| 20260905074859 | 62 | 349 | 1.0 | 2.0 | 0.07 | 0.13 | 0.13 | 88 | 1027.4 |
| 20260905073907 | 62 | 327 | 1.0 | 3.0 | 0.06 | 0.12 | 0.12 | 87 | 1027.3 |
| 20260905072902 | 62 | 343 | 0.0 | 2.0 | 0.05 | 0.11 | 0.11 | 86 | 1027.1 |
| 20260905071936 | 62 | 348 | 0.0 | 3.0 | 0.02 | 0.08 | 0.08 | 86 | 1027.0 |
| 20260905070905 | 62 | 146 | 1.0 | 3.0 | 0.00 | 0.06 | 0.06 | 86 | 1026.8 |
| 20260905065920 | 62 | 125 | 1.0 | 4.0 | 0.01 | 0.06 | 0.06 | 85 | 1026.8 |
| 20260905064910 | 62 | 55 | 1.0 | 3.0 | 0.06 | 0.06 | 0.06 | 84 | 1026.8 |
| 20260905063904 | 63 | 324 | 2.0 | 4.0 | 0.06 | 0.06 | 0.06 | 82 | 1026.5 |
| 20260905062858 | 63 | 126 | 1.0 | 3.0 | 0.06 | 0.06 | 0.06 | 81 | 1026.1 |
| 20260905061907 | 63 | 121 | 3.0 | 5.0 | 0.06 | 0.06 | 0.06 | 81 | 1025.7 |
| 20260905060902 | 64 | 21 | 2.0 | 4.0 | 0.06 | 0.06 | 0.06 | 71 | 1025.6 |
| 20260905055909 | 66 | 326 | 2.0 | 7.0 | 0.05 | 0.05 | 0.05 | 65 | 1026.3 |
| 20260905054904 | 67 | 25 | 3.0 | 6.0 | 0.00 | 0.00 | 0.00 | 62 | 1025.0 |
| 20260905053858 | 68 | 12 | 4.0 | 7.0 | 0.00 | 0.00 | 0.00 | 60 | 1024.1 |
| 20260905052926 | 69 | 169 | 1.0 | 3.0 | 0.00 | 0.00 | 0.00 | 58 | 1024.2 |
| 20260905051901 | 69 | 17 | 3.0 | 7.0 | 0.00 | 0.00 | 0.00 | 56 | 1024.0 |
| 20260905050910 | 69 | 125 | 3.0 | 7.0 | 0.00 | 0.00 | 0.00 | 59 | 1023.2 |
| 20260905045925 | 69 | 47 | 2.0 | 3.0 | 0.00 | 0.00 | 0.00 | 61 | 1022.9 |
| 20260905044856 | 70 | 26 | 1.0 | 4.0 | 0.00 | 0.00 | 0.00 | 63 | 1022.4 |
| 20260905043905 | 70 | 357 | 1.0 | 2.0 | 0.00 | 0.00 | 0.00 | 66 | 1022.1 |
| 20260905042900 | 70 | 215 | 1.0 | 3.0 | 0.00 | 0.00 | 0.00 | 68 | 1021.7 |
| 20260905041929 | 71 | 105 | 2.0 | 4.0 | 0.00 | 0.00 | 0.00 | 72 | 1021.7 |
| 20260905040903 | 70 | 214 | 1.0 | 4.0 | 0.00 | 0.00 | 0.00 | 75 | 1021.5 |
| 20260905035858 | 71 | 315 | 0.0 | 2.0 | 0.00 | 0.00 | 0.00 | 76 | 1021.0 |
| 20260905034907 | 70 | 323 | 1.0 | 4.0 | 0.00 | 0.00 | 0.00 | 78 | 1021.1 |
| 20260905033901 | 70 | 315 | 0.0 | 2.0 | 0.00 | 0.00 | 0.00 | 78 | 1020.8 |
| 20260905032908 | 70 | 315 | 0.0 | 1.0 | 0.00 | 0.00 | 0.00 | 78 | 1020.9 |
| 20260905031902 | 70 | 322 | 0.0 | 2.0 | 0.00 | 0.00 | 0.00 | 79 | 1020.8 |
| 20260905030856 | 70 | 246 | 2.0 | 4.0 | 0.00 | 0.00 | 0.00 | 79 | 1020.7 |
| 20260905025905 | 70 | 300 | 1.0 | 3.0 | 0.00 | 0.00 | 0.00 | 80 | 1020.6 |
| 20260905024919 | 69 | 62 | 2.0 | 3.0 | 0.00 | 0.00 | 0.00 | 82 | 1020.6 |
| 20260905023929 | 68 | 136 | 1.0 | 3.0 | 0.00 | 0.00 | 0.00 | 81 | 1020.5 |
| 20260905022923 | 68 | 315 | 0.0 | 2.0 | 0.00 | 0.00 | 0.00 | 80 | 1020.3 |
| 20260905021857 | 69 | 118 | 1.0 | 4.0 | 0.00 | 0.00 | 0.00 | 78 | 1020.2 |
| 20260905020906 | 70 | 215 | 0.0 | 2.0 | 0.00 | 0.00 | 0.00 | 72 | 1020.2 |
| 20260905020001 | 71 | 256 | 2.0 | 5.0 | 0.00 | 0.00 | 0.00 | 69 | 1019.9 |
| 20260905014910 | 73 | 333 | 1.0 | 4.0 | 0.00 | 0.00 | 0.00 | 57 | 1020.2 |
| 20260905013905 | 72 | 231 | 0.0 | 3.0 | 0.00 | 0.00 | 0.00 | 58 | 1019.9 |
| 20260905012859 | 72 | 306 | 1.0 | 2.0 | 0.00 | 0.00 | 0.00 | 61 | 1019.7 |
| 20260905011948 | 71 | 315 | 0.0 | 2.0 | 0.00 | 0.00 | 0.00 | 62 | 1019.5 |
| 20260905010917 | 69 | 135 | 0.0 | 2.0 | 0.00 | 0.00 | 0.00 | 66 | 1019.7 |
| 20260905005903 | 68 | 315 | 0.0 | 2.0 | 0.00 | 0.00 | 0.00 | 70 | 1019.7 |
| 20260905004858 | 66 | 8 | 0.0 | 2.0 | 0.00 | 0.00 | 0.00 | 72 | 1019.7 |
| 20260905003907 | 65 | 0.0 | 1.0 | 0.00 | 0.00 | 0.00 | 73 | 1019.6 | |
| 20260905002902 | 65 | 0.0 | 1.0 | 0.00 | 0.00 | 0.00 | 73 | 1019.6 | |
| 20260905002010 | 65 | 0.0 | 0.0 | 0.00 | 0.00 | 0.00 | 72 | 1019.7 | |
| 20260905000903 | 65 | 0.0 | 0.0 | 0.00 | 0.00 | 0.00 | 72 | 1019.4 | |
| 20260904235859 | 65 | 0.0 | 0.0 | 0.00 | 0.00 | 0.00 | 72 | 1019.4 | |
| 20260904234906 | 65 | 0.0 | 0.0 | 0.00 | 0.00 | 0.00 | 72 | 1019.4 | |
| 20260904233900 | 65 | 0.0 | 0.0 | 0.00 | 0.00 | 0.00 | 72 | 1019.3 | |
| 20260904232910 | 65 | 0.0 | 1.0 | 0.00 | 0.00 | 0.00 | 72 | 1019.2 | |
| 20260904231904 | 65 | 0.0 | 0.0 | 0.00 | 0.00 | 0.00 | 71 | 1019.1 |